This is the latest recevied weather packets stored in our database for station/object KD8ZLZ-13. If no packets are shown the sender has not sent any weather packets the latest 10 day(s).
| Time | Temp. | Humidity | Pressure | Rain* | Wind** | Luminosity | Snow |
|---|---|---|---|---|---|---|---|
| 1777666068 | 10.56° C | 42% | 1014.9 hPa | 6.35 mm | - | 481 W/m² | - |
| 1777665468 | 10.56° C | 42% | 1014.9 hPa | 6.35 mm | - | 481 W/m² | - |
| 1777664868 | 11.11° C | 44% | 1014.6 hPa | 0 mm | - | 299 W/m² | - |
| 1777664268 | 10.56° C | 48% | 1014.6 hPa | 0 mm | - | 433 W/m² | - |
| 1777663668 | 8.89° C | 60% | 1014.6 hPa | 0 mm | - | 117 W/m² | - |
| 1777663068 | 8.89° C | 59% | 1014.6 hPa | 0 mm | - | 81 W/m² | - |
| 1777662468 | 9.44° C | 56% | 1014.6 hPa | 0 mm | - | 74 W/m² | - |
| 1777661868 | 9.44° C | 53% | 1014.6 hPa | 0 mm | - | 100 W/m² | - |
| 1777661268 | 10° C | 53% | 1014.6 hPa | 0 mm | - | 461 W/m² | - |
| 1777660668 | 10.56° C | 53% | 1014.6 hPa | 0 mm | - | 246 W/m² | - |
| 1777660068 | 9.44° C | 53% | 1014.6 hPa | 0 mm | - | 141 W/m² | - |
| 1777659468 | 10° C | 54% | 1014.6 hPa | 0 mm | - | 254 W/m² | - |
| 1777658868 | 10° C | 55% | 1014.6 hPa | 0 mm | - | 551 W/m² | - |
| 1777658268 | 9.44° C | 56% | 1014.6 hPa | 0 mm | - | 364 W/m² | - |
| 1777657668 | 8.89° C | 63% | 1014.6 hPa | 0 mm | - | 142 W/m² | - |
| 1777657068 | 8.33° C | 63% | 1014.6 hPa | 0 mm | - | 64 W/m² | - |
| 1777656468 | 8.89° C | 60% | 1014.6 hPa | 0 mm | - | 39 W/m² | - |
| 1777655868 | 9.44° C | 61% | 1014.6 hPa | 0 mm | - | 76 W/m² | - |
| 1777655268 | 9.44° C | 61% | 1014.6 hPa | 0 mm | - | 150 W/m² | - |
| 1777654668 | 10.56° C | 61% | 1014.6 hPa | 0 mm | - | 386 W/m² | - |
| 1777654068 | 10° C | 62% | 1014.6 hPa | 0 mm | - | 541 W/m² | - |
| 1777653468 | 9.44° C | 65% | 1014.6 hPa | 0 mm | - | 343 W/m² | - |
| 1777652868 | 8.33° C | 65% | 1014.6 hPa | 0 mm | - | 248 W/m² | - |
| 1777652268 | 7.78° C | 67% | 1014.6 hPa | 0 mm | - | 257 W/m² | - |
| 1777651668 | 7.78° C | 69% | 1014.6 hPa | 0 mm | - | 197 W/m² | - |
* Rain latest hour (hover to see other rain measurements)
** Current wind speed in m/s (hover to see current wind gust speed)